IOD1_STARTICAL

Satellite information

Favourite Embed

Satellite Type and Status

PAYLOADIN ORBIT

Key statistics

Satellite IOD1_STARTICAL at a glance.

Uptime

274

Days in orbit

Revolutions

≈ 15.4

Per day

Orbit

SSO

Sun Synchronous Orbit

Inclination

97.4

Latest

Satellite identification and parameters

Extended collection of information and parameters for IOD1_STARTICAL.

Object identification

Identified? True

Debris? False

Object name: IOD1_STARTICAL

International designator: 2025-052C

Object number (NORAD): 63212

Object ID (CCSDS): 63212

Country: SPAIN (SPN)

Current information (Y/N): Y

RCS size: MEDIUM

Orbital parameters

Period: 93.743 minutes

Inclination: 97.4043 deg

SMA: 6835.75 km

Apoapsis: 460.923 km

Periapsis: 454.306 km

RAAN: 241.1941 deg

Eccentricy: 0.00048395

Argument of periapsis: 69.6821 deg

Mean anomaly: 290.4943 deg

Mean motion: 15.36114361 rev/day

Mean motion (dot): 0.00035716 rev/day2

B* drag term: 0.0010136941 1/REarth

Two-line elements (TLE)

Creation date: Dec. 14, 2025, 3:07 a.m.

Reference frame: TEME

Reference center: EARTH

Epoch: Dec. 13, 2025, 3:46 p.m. UTC

TLE line 0: 0 IOD1_STARTICAL

TLE line 1: 1 63212U 25052C 25347.65737437 .00035716 00000-0 10137-2 0 9997

TLE line 2: 2 63212 97.4043 241.1941 0004840 69.6821 290.4943 15.36114361 41853

Live tracking on map

Real-time ground track for satellite IOD1_STARTICAL.

In-orbit conjunctions

There are no conjunctions computed for IOD1_STARTICAL, at the moment. Check back to stay up to date, as we update our databases every day.

Go to all conjunctions

Associated space launch

Dedicated rideshare flight to a sun-synchronous orbit with dozens of small microsatellites and nanosatellites for commercial and government customers.

IOD1_STARTICAL was lifted into orbit during the mission ‘Falcon 9 Block 5 | Transporter 13 (Dedicated SSO Rideshare)’, on board a Falcon 9 space rocket.

The launch took place on March 15, 2025, 6:43 a.m. from Space Launch Complex 4E.

For more information about the launch, click the button.

Launch to space Falcon 9 Block 5 | Transporter 13 (Dedicated SSO Rideshare)
Falcon 9 Block 5 | Transporter 13 (Dedicated SSO Rideshare)

Agency: SpaceX

Status: Launch Successful

Launch date: March 15, 2025, 6:43 a.m. UTC

Rocket: Falcon 9

Launch pad: Space Launch Complex 4E

Location: Vandenberg SFB, CA, USA

...

Latest news about this satellite

News about space launch
Varda Space reentry capsule lands in Australia, completes hypersonic research mission

W-3 focused on gathering data for military hypersonic research. The post Varda Space reentry capsule lands in Australia, completes hypersonic research mission appeared first on SpaceNews.

News about space launch
Intelligence and dual-use commercial satellites launch on Transporter-13

Among the 74 payloads on SpaceX’s Transporter-13 mission was a technology demonstrator from the National Reconnaissance Office The post Intelligence and dual-use commercial satellites launch on Transporter-13 appeared first on SpaceNews.

News about space launch
NASA’s EZIE Launches on Mission to Study Earth’s Electrojets

Under the nighttime California sky, NASA’s EZIE (Electrojet Zeeman Imaging Explorer) mission launched aboard a SpaceX Falcon 9 rocket at 11:43 p.m. PDT on March 14. Taking off from Vandenberg Space Force Base near Santa Barbara, the EZIE mission’s trio of...


Newsletter sign-up

Weekly statistics, charts and insights to help you stay on top of the space industry.